{"data":{"norad_id":63317,"intl_designator":"2025-057L","name":"STARLINK-11633 [DTC]","alt_names":[],"object_type":"PAYLOAD","status":"ACTIVE","operator":null,"country":"US","launch_date":"2025-03-18","launch_site_code":"AFETR","launch_vehicle":null,"mission":null,"orbit_class":"UNKNOWN","rcs_meters":null,"size_class":null,"mass_kg":null,"dimensions":null,"purposes":["comms"],"wikipedia_slug":null,"has_3d_model":false,"image_url":null,"decayed_at":null,"tle_current":{"epoch":"2026-05-25T01:30:28.226016Z","epoch_age_seconds":63545,"freshness":"FRESH","line1":"1 63317U 25057L   26145.06282669  .00233921  00000+0  17649-2 0  9994","line2":"2 63317  42.9993 163.7712 0001330 242.6140 117.4593 15.70985298 69190","mean_motion":15.70985298,"eccentricity":0.000133,"inclination_deg":42.9993,"raan_deg":163.7712,"arg_perigee_deg":242.614,"mean_anomaly_deg":117.4593,"bstar":0.0017649,"rev_number":6919,"period_min":91.6622199987,"perigee_km":355.18415386474,"apogee_km":356.97545553479,"semimajor_km":6734.2168046998,"source":"CELESTRAK","updated_at":"2026-05-25T13:38:19.957969Z"}}}